Time,TemperatureF,DewpointF,PressureIn,WindDirection,WindDirectionDegrees,WindSpeedMPH,WindSpeedGustMPH,Humidity,HourlyPrecipIn,Conditions,Clouds,dailyrainin,SoftwareType,DateUTC
2013-01-24 00:00:00,2.0,-5.8,29.91,NW,315,0.0,13.0,69,0.00,,,-99.99,Weather View 32 v60,2013-01-24 06:00:00,
2013-01-24 00:30:00,1.0,-6.5,29.93,NW,315,11.0,13.0,70,0.00,,,-99.99,Weather View 32 v60,2013-01-24 06:30:00,
2013-01-24 01:00:00,1.0,-6.2,29.93,WNW,292,6.0,12.0,71,0.00,,,-99.99,Weather View 32 v60,2013-01-24 07:00:00,
2013-01-24 01:30:00,0.0,-6.9,29.94,NW,315,4.0,12.0,72,0.00,,,-99.99,Weather View 32 v60,2013-01-24 07:30:00,
2013-01-24 02:00:00,0.0,-6.6,29.95,NNE,22,0.0,12.0,73,0.00,,,-99.99,Weather View 32 v60,2013-01-24 08:00:00,
2013-01-24 02:30:00,0.0,-6.3,29.96,North,0,11.0,13.0,74,0.00,,,-99.99,Weather View 32 v60,2013-01-24 08:30:00,
2013-01-24 03:00:00,0.0,-6.3,29.96,NNW,338,8.0,13.0,74,0.00,,,-99.99,Weather View 32 v60,2013-01-24 09:00:00,
2013-01-24 03:30:00,0.0,-6.3,29.98,NW,315,3.0,12.0,74,0.00,,,-99.99,Weather View 32 v60,2013-01-24 09:30:00,
2013-01-24 04:00:00,0.0,-6.3,30.00,NNW,338,0.0,10.0,74,0.00,,,-99.99,Weather View 32 v60,2013-01-24 10:00:00,
2013-01-24 04:30:00,-1.0,-7.0,30.01,North,0,0.0,10.0,75,0.00,,,-99.99,Weather View 32 v60,2013-01-24 10:30:00,
2013-01-24 05:00:00,-1.0,-6.7,30.02,NW,315,3.0,9.0,76,0.00,,,-99.99,Weather View 32 v60,2013-01-24 11:00:00,
2013-01-24 05:30:00,-1.0,-6.7,30.02,WNW,292,0.0,6.0,76,0.00,,,-99.99,Weather View 32 v60,2013-01-24 11:30:00,
2013-01-24 06:00:00,-1.0,-6.7,30.03,WNW,292,1.0,6.0,76,0.00,,,-99.99,Weather View 32 v60,2013-01-24 12:00:00,
2013-01-24 06:30:00,-2.0,-7.4,30.04,WNW,292,0.0,6.0,77,0.00,,,-99.99,Weather View 32 v60,2013-01-24 12:30:00,
2013-01-24 07:00:00,-1.0,-6.5,30.05,WNW,292,2.0,6.0,77,0.00,,,-99.99,Weather View 32 v60,2013-01-24 13:00:00,
2013-01-24 07:30:00,-1.0,-6.7,30.07,NNW,338,3.0,6.0,76,0.00,,,-99.99,Weather View 32 v60,2013-01-24 13:30:00,
2013-01-24 08:00:00,1.0,-5.1,30.07,NNW,338,2.0,6.0,75,0.00,,,-99.99,Weather View 32 v60,2013-01-24 14:00:00,
2013-01-24 08:30:00,2.0,-5.2,30.06,North,0,3.0,6.0,71,0.00,,,-99.99,Weather View 32 v60,2013-01-24 14:30:00,
2013-01-24 09:00:00,4.0,-4.5,30.06,NNE,22,4.0,6.0,67,0.00,,,-99.99,Weather View 32 v60,2013-01-24 15:00:00,
2013-01-24 09:30:00,5.0,-4.2,30.05,ESE,112,1.0,6.0,65,0.00,,,-99.99,Weather View 32 v60,2013-01-24 15:30:00,
2013-01-24 10:00:00,7.0,-3.6,30.04,East,90,2.0,6.0,61,0.00,,,-99.99,Weather View 32 v60,2013-01-24 16:00:00,
2013-01-24 10:30:00,8.0,-3.4,30.03,SSE,158,0.0,7.0,59,0.00,,,-99.99,Weather View 32 v60,2013-01-24 16:30:00,
2013-01-24 11:00:00,9.0,-2.8,30.02,SSE,158,3.0,7.0,58,0.00,,,-99.99,Weather View 32 v60,2013-01-24 17:00:00,
2013-01-24 11:30:00,10.0,-2.2,29.99,SSW,202,1.0,6.0,57,0.00,,,-99.99,Weather View 32 v60,2013-01-24 17:30:00,
2013-01-24 12:00:00,12.0,-1.1,30.00,WSW,248,3.0,6.0,55,0.00,,,-99.99,Weather View 32 v60,2013-01-24 18:00:00,
2013-01-24 12:30:00,11.0,-2.0,29.98,WSW,248,4.0,6.0,55,0.00,,,-99.99,Weather View 32 v60,2013-01-24 18:30:00,
2013-01-24 13:00:00,11.0,-2.0,29.97,SSW,202,3.0,6.0,55,0.00,,,-99.99,Weather View 32 v60,2013-01-24 19:00:00,
2013-01-24 13:30:00,13.0,-0.5,29.96,WNW,292,0.0,6.0,54,0.00,,,-99.99,Weather View 32 v60,2013-01-24 19:30:00,
2013-01-24 14:00:00,13.0,-0.5,29.96,NE,45,0.0,5.0,54,0.00,,,-99.99,Weather View 32 v60,2013-01-24 20:00:00,
2013-01-24 14:30:00,13.0,-0.5,29.93,SSW,202,0.0,3.0,54,0.00,,,-99.99,Weather View 32 v60,2013-01-24 20:30:00,
2013-01-24 15:00:00,13.0,-0.9,29.93,SE,135,0.0,3.0,53,0.00,,,-99.99,Weather View 32 v60,2013-01-24 21:00:00,
2013-01-24 15:30:00,13.0,-0.5,29.92,East,90,0.0,6.0,54,0.00,,,-99.99,Weather View 32 v60,2013-01-24 21:30:00,
2013-01-24 16:00:00,13.0,0.3,29.91,ESE,112,0.0,6.0,56,0.00,,,-99.99,Weather View 32 v60,2013-01-24 22:00:00,
2013-01-24 16:30:00,13.0,0.6,29.90,East,90,0.0,6.0,57,0.00,,,-99.99,Weather View 32 v60,2013-01-24 22:30:00,
2013-01-24 17:00:00,13.0,1.0,29.87,East,90,6.0,6.0,58,0.00,,,-99.99,Weather View 32 v60,2013-01-24 23:00:00,
2013-01-24 17:30:00,13.0,1.7,29.85,SE,135,5.0,7.0,60,0.00,,,-99.99,Weather View 32 v60,2013-01-24 23:30:00,
2013-01-24 18:00:00,13.0,2.4,29.85,ESE,112,1.0,7.0,62,0.00,,,-99.99,Weather View 32 v60,2013-01-25 00:00:00,
2013-01-24 18:30:00,13.0,2.4,29.84,SE,135,0.0,7.0,62,0.00,,,-99.99,Weather View 32 v60,2013-01-25 00:30:00,
2013-01-24 19:00:00,13.0,2.1,29.85,East,90,1.0,7.0,61,0.00,,,-99.99,Weather View 32 v60,2013-01-25 01:00:00,
2013-01-24 19:30:00,13.0,2.4,29.82,SE,135,1.0,6.0,62,0.00,,,-99.99,Weather View 32 v60,2013-01-25 01:30:00,
2013-01-24 20:00:00,13.0,3.8,29.80,SE,135,4.0,6.0,66,0.00,,,-99.99,Weather View 32 v60,2013-01-25 02:00:00,
2013-01-24 20:30:00,13.0,4.4,29.79,SE,135,2.0,6.0,68,0.00,,,-99.99,Weather View 32 v60,2013-01-25 02:30:00,
2013-01-24 21:00:00,13.0,5.4,29.78,East,90,0.0,6.0,71,0.00,,,-99.99,Weather View 32 v60,2013-01-25 03:00:00,
2013-01-24 21:30:00,13.0,6.0,29.77,SE,135,0.0,6.0,73,0.00,,,-99.99,Weather View 32 v60,2013-01-25 03:30:00,
2013-01-24 22:00:00,13.0,6.6,29.76,SE,135,3.0,6.0,75,0.00,,,-99.99,Weather View 32 v60,2013-01-25 04:00:00,
2013-01-24 22:30:00,14.0,7.5,29.75,SSW,202,0.0,7.0,75,0.00,,,-99.99,Weather View 32 v60,2013-01-25 04:30:00,
2013-01-24 23:00:00,14.0,7.5,29.72,SE,135,0.0,7.0,75,0.00,,,-99.99,Weather View 32 v60,2013-01-25 05:00:00,
2013-01-24 23:30:00,15.0,8.5,29.72,East,90,0.0,6.0,75,0.00,,,-99.99,Weather View 32 v60,2013-01-25 05:30:00,